Weather History for KCMD - October, 2013

Change the Weather History Date:

Sunday, October 20, 2013

  Actual Average Record
Temperature  
Mean Temperature 50 °F -  
Max Temperature 64 °F - - ()
Min Temperature 36 °F - - ()
Degree Days  
Heating Degree Days 15    
Moisture  
Dew Point 39 °F    
Average Humidity 77    
Maximum Humidity 100    
Minimum Humidity 29    
Precipitation  
Precipitation 0.00 in - - ()
Sea Level Pressure  
Sea Level Pressure 30.08 in    
Wind  
Wind Speed 2 mph (NNE)    
Max Wind Speed 7 mph    
Max Gust Speed -    
Visibility 8 miles    
Events Fog    
T = Trace of Precipitation, MM = Missing Value Source: NWS Daily Summary

Daily Weather History Graph

Daily Weather History Graph

Search for Another Location

Airport or City:

Trip Planner

Search our weather history database for the weather conditions in past years. The results will help you decide how hot, cold, wet, or windy it might be!

Date:

Astronomy

Oct. 20, 2013 Rise Set
Actual Time 6:57 AM CDT 6:06 PM CDT
Civil Twilight 6:31 AM CDT 6:32 PM CDT
Nautical Twilight 6:02 AM CDT 7:01 PM CDT
Astronomical Twilight 5:33 AM CDT 7:30 PM CDT
Moon 7:20 PM CDT (10/20) 8:29 AM CDT (10/20)
Length of Visible Light 12h 00m
Length of Day
11h 09m
Full, 97% of the Moon is Illuminated
Oct 20
Full
Oct 26
Last Quarter
Nov 3
New
Nov 9
First Quarter
Nov 17
Full

Hourly Weather History & Observations

Time (CDT) Temp. Windchill Dew Point Humidity Pressure Visibility Wind Dir Wind Speed Gust Speed Precip Events Conditions
12:15 AM 44.2 °F - 42.4 °F 93% 30.06 in 10.0 mi Calm Calm - N/A   Clear
12:35 AM 44.1 °F 42.5 °F 42.3 °F 93% 30.06 in 10.0 mi North 3.5 mph - N/A   Clear
12:55 AM 44.1 °F 42.5 °F 42.1 °F 93% 30.07 in 10.0 mi North 3.5 mph - N/A   Clear
1:15 AM 43.5 °F 41.9 °F 42.1 °F 95% 30.07 in 10.0 mi North 3.5 mph - N/A   Clear
1:35 AM 43.3 °F 41.7 °F 42.1 °F 95% 30.07 in 10.0 mi North 3.5 mph - N/A   Clear
1:55 AM 43.0 °F 41.3 °F 41.7 °F 95% 30.08 in 10.0 mi North 3.5 mph - N/A   Clear
2:15 AM 42.4 °F - 41.5 °F 97% 30.07 in 10.0 mi Calm Calm - N/A   Clear
2:35 AM 41.5 °F - 40.8 °F 97% 30.07 in 10.0 mi Calm Calm - N/A   Clear
2:55 AM 41.4 °F - 40.8 °F 98% 30.07 in 10.0 mi Calm Calm - N/A   Clear
3:15 AM 41.4 °F 39.4 °F 41.0 °F 99% 30.07 in 10.0 mi North 3.5 mph - N/A   Clear
3:35 AM 41.4 °F - 41.0 °F 99% 30.07 in 10.0 mi Calm Calm - N/A   Clear
3:55 AM 40.8 °F - 40.3 °F 98% 30.07 in 7.0 mi Calm Calm - N/A   Clear
4:15 AM 40.1 °F - 39.7 °F 99% 30.07 in 7.0 mi Calm Calm - N/A   Clear
4:35 AM 40.1 °F - 39.7 °F 99% 30.08 in 5.0 mi Calm Calm - N/A   Mostly Cloudy
4:55 AM 39.2 °F - 38.8 °F 99% 30.08 in 2.0 mi Calm Calm - N/A   Overcast
5:15 AM 38.5 °F - 38.1 °F 99% 30.09 in 0.5 mi Calm Calm - N/A Fog Fog
5:35 AM 38.1 °F - 37.9 °F 99% 30.09 in 0.2 mi Calm Calm - N/A Fog Fog
5:55 AM 38.1 °F - 37.9 °F 99% 30.09 in 0.5 mi Calm Calm - N/A Fog Fog
6:15 AM 37.8 °F - 37.8 °F 100% 30.10 in 0.2 mi Calm Calm - N/A Fog Fog
6:35 AM 36.9 °F - 36.9 °F 100% 30.09 in 0.2 mi Calm Calm - N/A Fog Fog
6:55 AM 36.0 °F - 36.0 °F 100% 30.09 in 0.8 mi Calm Calm - N/A   Overcast
7:15 AM 36.3 °F - 36.3 °F 100% 30.10 in 0.2 mi Calm Calm - N/A Fog Fog
7:35 AM 37.2 °F - 37.2 °F 100% 30.10 in 0.2 mi Calm Calm - N/A Fog Fog
7:55 AM 37.8 °F - 37.8 °F 100% 30.11 in 0.2 mi Calm Calm - N/A Fog Fog
8:15 AM 39.4 °F - 39.4 °F 100% 30.11 in 0.5 mi Calm Calm - N/A Fog Fog
8:35 AM 42.6 °F 40.9 °F 42.3 °F 99% 30.11 in 7.0 mi NE 3.5 mph - N/A   Scattered Clouds
8:55 AM 45.1 °F 42.8 °F 43.9 °F 95% 30.12 in 10.0 mi ENE 4.6 mph - N/A   Clear
9:15 AM 47.1 °F - 43.9 °F 88% 30.12 in 10.0 mi NE 6.9 mph - N/A   Clear
9:35 AM 48.7 °F - 43.9 °F 83% 30.11 in 10.0 mi NE 4.6 mph - N/A   Clear
9:55 AM 49.6 °F - 43.3 °F 79% 30.12 in 10.0 mi NE 4.6 mph - N/A   Clear
10:15 AM 50.7 °F - 43.0 °F 75% 30.12 in 10.0 mi ENE 3.5 mph - N/A   Clear
10:35 AM 51.8 °F - 42.3 °F 70% 30.12 in 10.0 mi ENE 4.6 mph - N/A   Clear
10:55 AM 53.6 °F - 40.3 °F 61% 30.11 in 10.0 mi North 5.8 mph - N/A   Clear
11:15 AM 55.8 °F - 37.0 °F 49% 30.11 in 10.0 mi East 4.6 mph - N/A   Clear
11:35 AM 57.2 °F - 37.0 °F 47% 30.11 in 10.0 mi NNE 3.5 mph - N/A   Clear
11:55 AM 58.1 °F - 36.3 °F 44% 30.11 in 10.0 mi Calm Calm - N/A   Clear
12:15 PM 59.2 °F - 35.4 °F 41% 30.11 in 10.0 mi Calm Calm - N/A   Clear
12:35 PM 59.9 °F - 34.0 °F 38% 30.10 in 10.0 mi NNE 3.5 mph - N/A   Clear
12:55 PM 60.8 °F - 34.2 °F 37% 30.09 in 10.0 mi NNW 4.6 mph - N/A   Clear
1:15 PM 62.2 °F - 38.7 °F 42% 30.08 in 10.0 mi North 6.9 mph - N/A   Clear
1:35 PM 61.9 °F - 37.9 °F 41% 30.07 in 10.0 mi Calm Calm - N/A   Clear
1:55 PM 62.1 °F - 36.3 °F 38% 30.07 in 10.0 mi Calm Calm - N/A   Clear
2:15 PM 63.0 °F - 34.5 °F 35% 30.06 in 10.0 mi NW 3.5 mph - N/A   Clear
2:35 PM 64.0 °F - 32.2 °F 30% 30.06 in 10.0 mi Calm Calm - N/A   Clear
2:55 PM 64.2 °F - 31.1 °F 29% 30.06 in 10.0 mi WNW 3.5 mph - N/A   Clear
3:15 PM 64.8 °F - 31.3 °F 29% 30.06 in 10.0 mi NW 4.6 mph - N/A   Clear
3:35 PM 64.0 °F - 30.7 °F 29% 30.05 in 10.0 mi Calm Calm - N/A   Clear
3:55 PM 64.8 °F - 34.5 °F 33% 30.05 in 10.0 mi WNW 3.5 mph - N/A   Clear
4:15 PM 64.0 °F - 37.4 °F 37% 30.05 in 10.0 mi Calm Calm - N/A   Clear
4:35 PM 63.7 °F - 36.7 °F 37% 30.05 in 10.0 mi Calm Calm - N/A   Clear
4:55 PM 63.7 °F - 36.0 °F 36% 30.05 in 10.0 mi Calm Calm - N/A   Clear
5:15 PM 63.0 °F - 37.2 °F 38% 30.05 in 10.0 mi Calm Calm - N/A   Clear
5:35 PM 61.7 °F - 39.0 °F 43% 30.05 in 10.0 mi Calm Calm - N/A   Clear
5:55 PM 58.6 °F - 40.5 °F 51% 30.06 in 10.0 mi Calm Calm - N/A   Clear
6:15 PM 54.0 °F - 42.8 °F 66% 30.06 in 10.0 mi Calm Calm - N/A   Clear
6:35 PM 51.1 °F - 42.8 °F 73% 30.06 in 10.0 mi Calm Calm - N/A   Clear
6:55 PM 48.9 °F - 43.5 °F 82% 30.06 in 10.0 mi Calm Calm - N/A   Clear
7:15 PM 47.7 °F - 43.3 °F 85% 30.07 in 10.0 mi Calm Calm - N/A   Clear
7:35 PM 46.4 °F - 43.9 °F 91% 30.07 in 10.0 mi Calm Calm - N/A   Clear
7:55 PM 45.7 °F - 43.5 °F 92% 30.07 in 10.0 mi Calm Calm - N/A   Clear
8:15 PM 44.8 °F - 42.8 °F 93% 30.07 in 10.0 mi Calm Calm - N/A   Clear
8:35 PM 44.2 °F - 42.8 °F 95% 30.07 in 10.0 mi Calm Calm - N/A   Clear
8:55 PM 43.2 °F - 41.7 °F 95% 30.07 in 10.0 mi Calm Calm - N/A   Clear
9:15 PM 42.6 °F - 41.5 °F 96% 30.07 in 10.0 mi Calm Calm - N/A   Clear
9:35 PM 42.6 °F - 41.4 °F 95% 30.07 in 10.0 mi Calm Calm - N/A   Clear
9:55 PM 42.1 °F - 41.0 °F 96% 30.08 in 10.0 mi Calm Calm - N/A   Clear
10:15 PM 41.9 °F - 40.8 °F 96% 30.08 in 10.0 mi Calm Calm - N/A   Clear
10:35 PM 41.5 °F - 40.5 °F 96% 30.08 in 10.0 mi Calm Calm - N/A   Clear
10:55 PM 40.6 °F - 39.7 °F 97% 30.07 in 10.0 mi Calm Calm - N/A   Clear
11:15 PM 40.1 °F 38.0 °F 39.4 °F 97% 30.07 in 10.0 mi NNE 3.5 mph - N/A   Clear
11:35 PM 40.1 °F 38.0 °F 39.2 °F 97% 30.07 in 10.0 mi NNE 3.5 mph - N/A   Clear
11:55 PM 40.1 °F - 39.2 °F 97% 30.07 in 10.0 mi Calm Calm - N/A   Clear